When you browse on this site, cookies collect data to enhance your experience and personalize the content and advertising you see.
Visit our Privacy Policy to learn more. By continuing to use the site, you agree to this use of cookies and data.
  • In Österreich
  • Länderverzeichnis
  • Für 7 Tage
  • Wassertemperatur
  • Wetterkarte
  • News
  • Widgets
  • user-avatar
    Anmelden

    Stündliche Wetter El Llano

    Heute, 6 Dezember, Freitag

    Zeit Temperatur Niederschläge Wind Luftdruck Luftfeuchtigkeit
    00:00 +12°C° 0 mm 0 m/S 593 mmHg 71%
    01:00 +11°C° 0 mm 0 m/S 593 mmHg 71%
    02:00 +12°C° 0 mm 1 m/S 592 mmHg 72%
    03:00 +11°C° 0 mm 1 m/S 592 mmHg 69%
    04:00 +11°C° 0 mm 1 m/S 592 mmHg 67%
    05:00 +9°C° 0 mm 0 m/S 593 mmHg 65%
    06:00 +11°C° 0 mm 0 m/S 594 mmHg 56%
    07:00 +13°C° 0 mm 0 m/S 595 mmHg 48%
    08:00 +15°C° 0 mm 0 m/S 596 mmHg 40%
    09:00 +19°C° 0 mm 1 m/S 597 mmHg 32%
    10:00 +20°C° 0 mm 2 m/S 597 mmHg 25%
    11:00 +22°C° 0 mm 3 m/S 598 mmHg 18%
    12:00 +22°C° 0 mm 3 m/S 598 mmHg 18%
    13:00 +23°C° 0 mm 4 m/S 597 mmHg 18%
    14:00 +23°C° 0 mm 5 m/S 597 mmHg 18%
    15:00 +21°C° 0 mm 5 m/S 596 mmHg 26%
    16:00 +19°C° 0 mm 4 m/S 596 mmHg 34%
    17:00 +17°C° 0 mm 4 m/S 595 mmHg 42%
    18:00 +14°C° 0 mm 3 m/S 595 mmHg 50%
    19:00 +14°C° 0 mm 2 m/S 595 mmHg 59%
    20:00 +13°C° 0 mm 2 m/S 595 mmHg 67%
    21:00 +12°C° 0 mm 1 m/S 595 mmHg 74%
    22:00 +11°C° 0 mm 1 m/S 595 mmHg 81%
    23:00 +11°C° 0 mm 1 m/S 595 mmHg 88%

    Morgen, 7 Dezember, Samstag

    Zeit Temperatur Niederschläge Wind Luftdruck Luftfeuchtigkeit
    00:00 +10°C° 0 mm 1 m/S 595 mmHg 90%
    01:00 +10°C° 0 mm 1 m/S 594 mmHg 92%
    02:00 +8°C° 0 mm 0 m/S 594 mmHg 93%
    03:00 +8°C° 0 mm 0 m/S 594 mmHg 92%
    04:00 +8°C° 0 mm 0 m/S 594 mmHg 91%
    05:00 +8°C° 0 mm 0 m/S 594 mmHg 89%
    06:00 +9°C° 0 mm 0 m/S 595 mmHg 80%
    07:00 +10°C° 0 mm 0 m/S 595 mmHg 71%
    08:00 +12°C° 0 mm 1 m/S 596 mmHg 62%
    09:00 +14°C° 0 mm 1 m/S 597 mmHg 51%
    10:00 +18°C° 0 mm 1 m/S 597 mmHg 40%
    11:00 +20°C° 0 mm 1 m/S 598 mmHg 28%
    12:00 +20°C° 0 mm 2 m/S 598 mmHg 27%
    13:00 +21°C° 0 mm 2 m/S 597 mmHg 25%
    14:00 +23°C° 0 mm 2 m/S 597 mmHg 23%
    15:00 +20°C° 0 mm 2 m/S 596 mmHg 29%
    16:00 +18°C° 0 mm 2 m/S 596 mmHg 35%
    17:00 +16°C° 0 mm 2 m/S 595 mmHg 42%
    18:00 +15°C° 0 mm 2 m/S 595 mmHg 50%
    19:00 +14°C° 0 mm 1 m/S 595 mmHg 58%
    20:00 +13°C° 0 mm 1 m/S 595 mmHg 66%
    21:00 +12°C° 0 mm 1 m/S 595 mmHg 72%
    22:00 +11°C° 0 mm 0 m/S 594 mmHg 78%
    23:00 +10°C° 0 mm 0 m/S 594 mmHg 84%

    übermorgen, 8 Dezember, Sonntag

    Zeit Temperatur Niederschläge Wind Luftdruck Luftfeuchtigkeit
    00:00 +10°C° 0 mm 0 m/S 594 mmHg 83%
    01:00 +10°C° 0 mm 1 m/S 593 mmHg 82%
    02:00 +10°C° 0 mm 1 m/S 593 mmHg 81%
    03:00 +10°C° 0 mm 1 m/S 593 mmHg 78%
    04:00 +9°C° 0 mm 1 m/S 592 mmHg 76%
    05:00 +9°C° 0 mm 1 m/S 592 mmHg 74%
    06:00 +11°C° 0 mm 1 m/S 593 mmHg 65%
    07:00 +13°C° 0 mm 1 m/S 594 mmHg 56%
    08:00 +15°C° 0 mm 1 m/S 596 mmHg 47%
    09:00 +18°C° 0 mm 1 m/S 596 mmHg 39%
    10:00 +20°C° 0 mm 1 m/S 596 mmHg 32%
    11:00 +23°C° 0 mm 1 m/S 597 mmHg 24%
    12:00 +23°C° 0 mm 2 m/S 596 mmHg 22%
    13:00 +24°C° 0 mm 3 m/S 596 mmHg 21%
    14:00 +25°C° 0 mm 3 m/S 596 mmHg 19%
    15:00 +22°C° 0 mm 3 m/S 595 mmHg 24%
    16:00 +20°C° 0 mm 2 m/S 594 mmHg 29%
    17:00 +18°C° 0 mm 2 m/S 593 mmHg 33%
    18:00 +18°C° 0 mm 1 m/S 593 mmHg 37%
    19:00 +16°C° 0 mm 1 m/S 593 mmHg 40%
    20:00 +14°C° 0 mm 0 m/S 593 mmHg 43%
    21:00 +14°C° 0 mm 1 m/S 593 mmHg 43%
    22:00 +14°C° 0 mm 1 m/S 593 mmHg 44%
    23:00 +13°C° 0 mm 1 m/S 592 mmHg 44%

    9 Dezember, Montag

    Zeit Temperatur Niederschläge Wind Luftdruck Luftfeuchtigkeit
    00:00 +13°C° 0 mm 1 m/S 592 mmHg 44%
    01:00 +12°C° 0 mm 1 m/S 592 mmHg 45%
    02:00 +12°C° 0 mm 1 m/S 591 mmHg 45%
    03:00 +11°C° 0 mm 1 m/S 591 mmHg 45%
    04:00 +11°C° 0 mm 1 m/S 591 mmHg 46%
    05:00 +11°C° 0 mm 1 m/S 591 mmHg 46%
    06:00 +13°C° 0 mm 1 m/S 592 mmHg 42%
    07:00 +15°C° 0 mm 1 m/S 593 mmHg 38%
    08:00 +18°C° 0 mm 1 m/S 595 mmHg 34%
    09:00 +20°C° 0 mm 1 m/S 595 mmHg 30%
    10:00 +22°C° 0 mm 1 m/S 595 mmHg 25%
    11:00 +22°C° 0 mm 0 m/S 596 mmHg 21%
    12:00 +24°C° 0 mm 1 m/S 595 mmHg 19%
    13:00 +25°C° 0 mm 1 m/S 595 mmHg 17%
    14:00 +26°C° 0 mm 1 m/S 594 mmHg 16%
    15:00 +24°C° 0 mm 1 m/S 594 mmHg 19%
    16:00 +22°C° 0 mm 1 m/S 593 mmHg 22%
    17:00 +20°C° 0 mm 1 m/S 592 mmHg 26%
    18:00 +19°C° 0 mm 1 m/S 593 mmHg 29%
    19:00 +18°C° 0 mm 1 m/S 593 mmHg 33%
    20:00 +16°C° 0 mm 1 m/S 593 mmHg 37%
    21:00 +16°C° 0 mm 1 m/S 593 mmHg 42%
    22:00 +15°C° 0 mm 1 m/S 592 mmHg 46%
    23:00 +15°C° 0 mm 1 m/S 592 mmHg 51%

    10 Dezember, Dienstag

    Zeit Temperatur Niederschläge Wind Luftdruck Luftfeuchtigkeit
    00:00 +14°C° 0 mm 1 m/S 592 mmHg 57%
    01:00 +14°C° 0 mm 1 m/S 592 mmHg 63%
    02:00 +14°C° 0 mm 1 m/S 591 mmHg 69%
    03:00 +13°C° 0 mm 1 m/S 591 mmHg 72%
    04:00 +13°C° 0 mm 1 m/S 591 mmHg 75%
    05:00 +12°C° 0 mm 1 m/S 591 mmHg 78%
    06:00 +14°C° 0 mm 1 m/S 593 mmHg 71%
    07:00 +15°C° 0 mm 1 m/S 594 mmHg 63%
    08:00 +16°C° 0 mm 0 m/S 595 mmHg 56%
    09:00 +20°C° 0 mm 1 m/S 596 mmHg 48%
    10:00 +22°C° 0 mm 1 m/S 596 mmHg 41%
    11:00 +23°C° 0 mm 1 m/S 597 mmHg 33%
    12:00 +24°C° 0 mm 2 m/S 597 mmHg 31%
    13:00 +24°C° 0 mm 2 m/S 597 mmHg 29%
    14:00 +25°C° 0 mm 3 m/S 597 mmHg 27%
    15:00 +21°C° 0 mm 4 m/S 596 mmHg 43%
    16:00 +19°C° 0 mm 4 m/S 595 mmHg 60%
    17:00 +15°C° 0 mm 5 m/S 595 mmHg 76%
    18:00 +15°C° 0 mm 4 m/S 595 mmHg 76%
    19:00 +14°C° 0 mm 4 m/S 596 mmHg 77%
    20:00 +14°C° 0 mm 3 m/S 596 mmHg 78%
    21:00 +13°C° 0 mm 3 m/S 596 mmHg 79%
    22:00 +13°C° 0 mm 3 m/S 596 mmHg 80%
    23:00 +13°C° 0 mm 3 m/S 596 mmHg 81%

    11 Dezember, Mittwoch

    Zeit Temperatur Niederschläge Wind Luftdruck Luftfeuchtigkeit
    00:00 +12°C° 0 mm 3 m/S 595 mmHg 82%
    01:00 +13°C° 0 mm 2 m/S 595 mmHg 83%
    02:00 +12°C° 0 mm 2 m/S 595 mmHg 83%
    03:00 +12°C° 0 mm 2 m/S 595 mmHg 84%
    04:00 +12°C° 0 mm 2 m/S 595 mmHg 84%
    05:00 +12°C° 0 mm 2 m/S 595 mmHg 84%
    06:00 +12°C° 0 mm 2 m/S 595 mmHg 81%
    07:00 +12°C° 0 mm 2 m/S 596 mmHg 79%
    08:00 +13°C° 0 mm 2 m/S 596 mmHg 77%
    09:00 +14°C° 0 mm 2 m/S 596 mmHg 70%
    10:00 +15°C° 0 mm 2 m/S 597 mmHg 64%
    11:00 +16°C° 0 mm 2 m/S 597 mmHg 58%
    12:00 +17°C° 0 mm 2 m/S 596 mmHg 55%
    13:00 +18°C° 0 mm 3 m/S 596 mmHg 51%
    14:00 +19°C° 0 mm 3 m/S 596 mmHg 48%
    15:00 +17°C° 0 mm 3 m/S 595 mmHg 56%
    16:00 +16°C° 0 mm 2 m/S 595 mmHg 63%
    17:00 +14°C° 0 mm 2 m/S 594 mmHg 71%
    18:00 +13°C° 0 mm 2 m/S 594 mmHg 77%
    19:00 +12°C° 0 mm 1 m/S 595 mmHg 83%
    20:00 +12°C° 0 mm 1 m/S 595 mmHg 88%
    21:00 +11°C° 0 mm 1 m/S 594 mmHg 90%
    22:00 +10°C° 0 mm 0 m/S 594 mmHg 91%
    23:00 +9°C° 0 mm 0 m/S 594 mmHg 92%
    Mehr zeigen